owner,sensor,date,latitude,longitude,vertical_datum,wind_speed,wind_to_direction,wind_speed_of_gust,qcFlag 
DISL,ioos:station:DISL:MHPA:1,2008-05-01T00:00:00Z,30.6671,-87.9365,8.5,6.19,197.4,-9999.0,'1111122,1111122,1111122' 
DISL,ioos:station:DISL:MHPA:1,2008-05-01T00:30:00Z,30.6671,-87.9365,8.5,3.75,160.9,-9999.0,'1111122,1111122,1111122' 
DISL,ioos:station:DISL:MHPA:1,2008-05-01T01:00:00Z,30.6671,-87.9365,8.5,3.6,143.0,-9999.0,'1111122,1111122,1111122' 
DISL,ioos:station:DISL:MHPA:1,2008-05-01T01:30:00Z,30.6671,-87.9365,8.5,3.34,139.2,-9999.0,'1111122,1111122,1111122' 
DISL,ioos:station:DISL:MHPA:1,2008-05-01T02:00:00Z,30.6671,-87.9365,8.5,3.48,134.8,-9999.0,'1111122,1111122,1111122' 
DISL,ioos:station:DISL:MHPA:1,2008-05-01T02:30:00Z,30.6671,-87.9365,8.5,3.06,137.9,-9999.0,'1111122,1111122,1111122' 
DISL,ioos:station:DISL:MHPA:1,2008-05-01T03:00:00Z,30.6671,-87.9365,8.5,2.67,147.7,-9999.0,'1111122,1111122,1111122' 
DISL,ioos:station:DISL:MHPA:1,2008-05-01T03:30:00Z,30.6671,-87.9365,8.5,3.42,150.2,-9999.0,'1111122,1111122,1111122' 
DISL,ioos:station:DISL:MHPA:1,2008-05-01T04:00:00Z,30.6671,-87.9365,8.5,4.66,157.1,-9999.0,'1111122,1111122,1111122' 
DISL,ioos:station:DISL:MHPA:1,2008-05-01T04:30:00Z,30.6671,-87.9365,8.5,3.46,147.1,-9999.0,'1111122,1111122,1111122' 
DISL,ioos:station:DISL:MHPA:1,2008-05-01T05:00:00Z,30.6671,-87.9365,8.5,3.39,145.3,-9999.0,'1111122,1111122,1111122' 
DISL,ioos:station:DISL:MHPA:1,2008-05-01T05:30:00Z,30.6671,-87.9365,8.5,3.34,145.5,-9999.0,'1111122,1111122,1111122' 
DISL,ioos:station:DISL:MHPA:1,2008-05-01T06:00:00Z,30.6671,-87.9365,8.5,3.05,138.8,-9999.0,'1111122,1111122,1111122' 
DISL,ioos:station:DISL:MHPA:1,2008-05-01T06:30:00Z,30.6671,-87.9365,8.5,3.76,138.4,-9999.0,'1111122,1111122,1111122' 
DISL,ioos:station:DISL:MHPA:1,2008-05-01T07:00:00Z,30.6671,-87.9365,8.5,3.76,144.3,-9999.0,'1111122,1111122,1111122' 
DISL,ioos:station:DISL:MHPA:1,2008-05-01T07:30:00Z,30.6671,-87.9365,8.5,3.61,136.7,-9999.0,'1111122,1111122,1111122' 
DISL,ioos:station:DISL:MHPA:1,2008-05-01T08:00:00Z,30.6671,-87.9365,8.5,3.68,133.5,-9999.0,'1111122,1111122,1111122' 
DISL,ioos:station:DISL:MHPA:1,2008-05-01T08:30:00Z,30.6671,-87.9365,8.5,2.77,129.9,-9999.0,'1111122,1111122,1111122' 
DISL,ioos:station:DISL:MHPA:1,2008-05-01T09:00:00Z,30.6671,-87.9365,8.5,2.71,121.3,-9999.0,'1111122,1111122,1111122' 
DISL,ioos:station:DISL:MHPA:1,2008-05-01T09:30:00Z,30.6671,-87.9365,8.5,3.82,146.0,-9999.0,'1111122,1111122,1111122' 
DISL,ioos:station:DISL:MHPA:1,2008-05-01T10:00:00Z,30.6671,-87.9365,8.5,3.58,136.9,-9999.0,'1111122,1111122,1111122' 
DISL,ioos:station:DISL:MHPA:1,2008-05-01T10:30:00Z,30.6671,-87.9365,8.5,2.91,120.5,-9999.0,'1111122,1111122,1111122' 
DISL,ioos:station:DISL:MHPA:1,2008-05-01T11:00:00Z,30.6671,-87.9365,8.5,3.9,140.7,-9999.0,'1111122,1111122,1111122' 
DISL,ioos:station:DISL:MHPA:1,2008-05-01T11:30:00Z,30.6671,-87.9365,8.5,2.99,122.4,-9999.0,'1111122,1111122,1111122' 
DISL,ioos:station:DISL:MHPA:1,2008-05-01T12:00:00Z,30.6671,-87.9365,8.5,3.76,137.3,-9999.0,'1111122,1111122,1111122' 
DISL,ioos:station:DISL:MHPA:1,2008-05-01T12:30:00Z,30.6671,-87.9365,8.5,4.66,139.7,-9999.0,'1111122,1111122,1111122' 
DISL,ioos:station:DISL:MHPA:1,2008-05-01T13:00:00Z,30.6671,-87.9365,8.5,4.75,142.8,-9999.0,'1111122,1111122,1111122' 
DISL,ioos:station:DISL:MHPA:1,2008-05-01T13:30:00Z,30.6671,-87.9365,8.5,4.28,143.7,-9999.0,'1111122,1111122,1111122' 
DISL,ioos:station:DISL:MHPA:1,2008-05-01T14:00:00Z,30.6671,-87.9365,8.5,5.47,165.3,-9999.0,'1111122,1111122,1111122' 
DISL,ioos:station:DISL:MHPA:1,2008-05-01T14:30:00Z,30.6671,-87.9365,8.5,6.91,177.0,-9999.0,'1111122,1111122,1111122' 
DISL,ioos:station:DISL:MHPA:1,2008-05-01T15:00:00Z,30.6671,-87.9365,8.5,7.78,175.9,-9999.0,'1111122,1111122,1111122' 
DISL,ioos:station:DISL:MHPA:1,2008-05-01T15:30:00Z,30.6671,-87.9365,8.5,7.57,170.1,-9999.0,'1111122,1111122,1111122' 
DISL,ioos:station:DISL:MHPA:1,2008-05-01T16:00:00Z,30.6671,-87.9365,8.5,7.63,169.1,-9999.0,'1111122,1111122,1111122' 
DISL,ioos:station:DISL:MHPA:1,2008-05-01T16:30:00Z,30.6671,-87.9365,8.5,7.78,170.1,-9999.0,'1111122,1111122,1111122' 
DISL,ioos:station:DISL:MHPA:1,2008-05-01T17:00:00Z,30.6671,-87.9365,8.5,7.31,171.0,-9999.0,'1111122,1111122,1111122' 
DISL,ioos:station:DISL:MHPA:1,2008-05-01T17:30:00Z,30.6671,-87.9365,8.5,6.92,167.4,-9999.0,'1111122,1111122,1111122' 
DISL,ioos:station:DISL:MHPA:1,2008-05-01T18:00:00Z,30.6671,-87.9365,8.5,6.51,181.2,-9999.0,'1111122,1111122,1111122' 
DISL,ioos:station:DISL:MHPA:1,2008-05-01T18:30:00Z,30.6671,-87.9365,8.5,7.08,177.4,-9999.0,'1111122,1111122,1111122' 
DISL,ioos:station:DISL:MHPA:1,2008-05-01T19:00:00Z,30.6671,-87.9365,8.5,7.21,177.0,-9999.0,'1111122,1111122,1111122' 
DISL,ioos:station:DISL:MHPA:1,2008-05-01T19:30:00Z,30.6671,-87.9365,8.5,6.78,182.6,-9999.0,'1111122,1111122,1111122' 
DISL,ioos:station:DISL:MHPA:1,2008-05-01T20:00:00Z,30.6671,-87.9365,8.5,7.4,183.1,-9999.0,'1111122,1111122,1111122' 
DISL,ioos:station:DISL:MHPA:1,2008-05-01T20:30:00Z,30.6671,-87.9365,8.5,7.53,182.4,-9999.0,'1111122,1111122,1111122' 
DISL,ioos:station:DISL:MHPA:1,2008-05-01T21:00:00Z,30.6671,-87.9365,8.5,6.56,182.4,-9999.0,'1111122,1111122,1111122' 
DISL,ioos:station:DISL:MHPA:1,2008-05-01T21:30:00Z,30.6671,-87.9365,8.5,6.89,175.4,-9999.0,'1111122,1111122,1111122' 
DISL,ioos:station:DISL:MHPA:1,2008-05-01T22:00:00Z,30.6671,-87.9365,8.5,7.78,173.1,-9999.0,'1111122,1111122,1111122' 
DISL,ioos:station:DISL:MHPA:1,2008-05-01T22:30:00Z,30.6671,-87.9365,8.5,6.8,141.9,-9999.0,'1111122,1111122,1111122' 
DISL,ioos:station:DISL:MHPA:1,2008-05-01T23:00:00Z,30.6671,-87.9365,8.5,6.09,139.5,-9999.0,'1111122,1111122,1111122' 
DISL,ioos:station:DISL:MHPA:1,2008-05-01T23:30:00Z,30.6671,-87.9365,8.5,6.73,143.8,-9999.0,'1111122,1111122,1111122' 
DISL,ioos:station:DISL:MHPA:1,2008-05-02T00:00:00Z,30.6671,-87.9365,8.5,6.48,136.6,-9999.0,'1111122,1111122,1111122' 
DISL,ioos:station:DISL:MHPA:1,2008-05-02T00:30:00Z,30.6671,-87.9365,8.5,5.5,136.3,-9999.0,'1111122,1111122,1111122' 
DISL,ioos:station:DISL:MHPA:1,2008-05-02T01:00:00Z,30.6671,-87.9365,8.5,5.63,127.9,-9999.0,'1111122,1111122,1111122' 
DISL,ioos:station:DISL:MHPA:1,2008-05-02T01:30:00Z,30.6671,-87.9365,8.5,5.32,135.2,-9999.0,'1111122,1111122,1111122' 
DISL,ioos:station:DISL:MHPA:1,2008-05-02T02:00:00Z,30.6671,-87.9365,8.5,5.07,146.6,-9999.0,'1111122,1111122,1111122' 
DISL,ioos:station:DISL:MHPA:1,2008-05-02T02:30:00Z,30.6671,-87.9365,8.5,5.25,141.8,-9999.0,'1111122,1111122,1111122' 
DISL,ioos:station:DISL:MHPA:1,2008-05-02T03:00:00Z,30.6671,-87.9365,8.5,5.08,143.4,-9999.0,'1111122,1111122,1111122' 
DISL,ioos:station:DISL:MHPA:1,2008-05-02T03:30:00Z,30.6671,-87.9365,8.5,5.24,146.2,-9999.0,'1111122,1111122,1111122' 
DISL,ioos:station:DISL:MHPA:1,2008-05-02T04:00:00Z,30.6671,-87.9365,8.5,5.54,146.9,-9999.0,'1111122,1111122,1111122' 
DISL,ioos:station:DISL:MHPA:1,2008-05-02T04:30:00Z,30.6671,-87.9365,8.5,5.59,146.3,-9999.0,'1111122,1111122,1111122' 
DISL,ioos:station:DISL:MHPA:1,2008-05-02T05:00:00Z,30.6671,-87.9365,8.5,4.29,145.9,-9999.0,'1111122,1111122,1111122' 
DISL,ioos:station:DISL:MHPA:1,2008-05-02T05:30:00Z,30.6671,-87.9365,8.5,4.9,140.1,-9999.0,'1111122,1111122,1111122' 
DISL,ioos:station:DISL:MHPA:1,2008-05-02T06:00:00Z,30.6671,-87.9365,8.5,5.84,144.0,-9999.0,'1111122,1111122,1111122' 
DISL,ioos:station:DISL:MHPA:1,2008-05-02T06:30:00Z,30.6671,-87.9365,8.5,4.82,146.0,-9999.0,'1111122,1111122,1111122' 
DISL,ioos:station:DISL:MHPA:1,2008-05-02T07:00:00Z,30.6671,-87.9365,8.5,4.47,135.3,-9999.0,'1111122,1111122,1111122' 
DISL,ioos:station:DISL:MHPA:1,2008-05-02T07:30:00Z,30.6671,-87.9365,8.5,3.99,133.9,-9999.0,'1111122,1111122,1111122' 
DISL,ioos:station:DISL:MHPA:1,2008-05-02T08:00:00Z,30.6671,-87.9365,8.5,2.6,136.3,-9999.0,'1111122,1111122,1111122' 
DISL,ioos:station:DISL:MHPA:1,2008-05-02T08:30:00Z,30.6671,-87.9365,8.5,2.02,145.5,-9999.0,'1111122,1111122,1111122' 
DISL,ioos:station:DISL:MHPA:1,2008-05-02T09:00:00Z,30.6671,-87.9365,8.5,1.87,114.5,-9999.0,'1111122,1111122,1111122' 
DISL,ioos:station:DISL:MHPA:1,2008-05-02T09:30:00Z,30.6671,-87.9365,8.5,2.76,122.1,-9999.0,'1111122,1111122,1111122' 
DISL,ioos:station:DISL:MHPA:1,2008-05-02T10:00:00Z,30.6671,-87.9365,8.5,2.9,118.8,-9999.0,'1111122,1111122,1111122' 
DISL,ioos:station:DISL:MHPA:1,2008-05-02T10:30:00Z,30.6671,-87.9365,8.5,2.3,130.3,-9999.0,'1111122,1111122,1111122' 
DISL,ioos:station:DISL:MHPA:1,2008-05-02T11:00:00Z,30.6671,-87.9365,8.5,4.07,149.8,-9999.0,'1111122,1111122,1111122' 
DISL,ioos:station:DISL:MHPA:1,2008-05-02T11:30:00Z,30.6671,-87.9365,8.5,3.45,135.6,-9999.0,'1111122,1111122,1111122' 
DISL,ioos:station:DISL:MHPA:1,2008-05-02T12:00:00Z,30.6671,-87.9365,8.5,3.28,114.6,-9999.0,'1111122,1111122,1111122' 
DISL,ioos:station:DISL:MHPA:1,2008-05-02T12:30:00Z,30.6671,-87.9365,8.5,3.06,123.5,-9999.0,'1111122,1111122,1111122' 
DISL,ioos:station:DISL:MHPA:1,2008-05-02T13:00:00Z,30.6671,-87.9365,8.5,2.46,114.9,-9999.0,'1111122,1111122,1111122' 
DISL,ioos:station:DISL:MHPA:1,2008-05-02T13:30:00Z,30.6671,-87.9365,8.5,5.0,144.6,-9999.0,'1111122,1111122,1111122' 
DISL,ioos:station:DISL:MHPA:1,2008-05-02T14:00:00Z,30.6671,-87.9365,8.5,6.38,142.8,-9999.0,'1111122,1111122,1111122' 
DISL,ioos:station:DISL:MHPA:1,2008-05-02T14:30:00Z,30.6671,-87.9365,8.5,8.08,150.6,-9999.0,'1111122,1111122,1111122' 
DISL,ioos:station:DISL:MHPA:1,2008-05-02T15:00:00Z,30.6671,-87.9365,8.5,7.33,157.1,-9999.0,'1111122,1111122,1111122' 
DISL,ioos:station:DISL:MHPA:1,2008-05-02T15:30:00Z,30.6671,-87.9365,8.5,7.95,156.6,-9999.0,'1111122,1111122,1111122' 
DISL,ioos:station:DISL:MHPA:1,2008-05-02T16:00:00Z,30.6671,-87.9365,8.5,7.57,160.3,-9999.0,'1111122,1111122,1111122' 
DISL,ioos:station:DISL:MHPA:1,2008-05-02T16:30:00Z,30.6671,-87.9365,8.5,8.69,159.6,-9999.0,'1111122,1111122,1111122' 
DISL,ioos:station:DISL:MHPA:1,2008-05-02T17:00:00Z,30.6671,-87.9365,8.5,9.38,168.5,-9999.0,'1111122,1111122,1111122' 
DISL,ioos:station:DISL:MHPA:1,2008-05-02T17:30:00Z,30.6671,-87.9365,8.5,8.79,158.8,-9999.0,'1111122,1111122,1111122' 
DISL,ioos:station:DISL:MHPA:1,2008-05-02T18:00:00Z,30.6671,-87.9365,8.5,9.12,151.0,-9999.0,'1111122,1111122,1111122' 
DISL,ioos:station:DISL:MHPA:1,2008-05-02T18:30:00Z,30.6671,-87.9365,8.5,8.86,156.5,-9999.0,'1111122,1111122,1111122' 
DISL,ioos:station:DISL:MHPA:1,2008-05-02T19:00:00Z,30.6671,-87.9365,8.5,8.05,145.9,-9999.0,'1111122,1111122,1111122' 
DISL,ioos:station:DISL:MHPA:1,2008-05-02T19:30:00Z,30.6671,-87.9365,8.5,7.83,153.8,-9999.0,'1111122,1111122,1111122' 
DISL,ioos:station:DISL:MHPA:1,2008-05-02T20:00:00Z,30.6671,-87.9365,8.5,7.63,154.3,-9999.0,'1111122,1111122,1111122' 
DISL,ioos:station:DISL:MHPA:1,2008-05-02T20:30:00Z,30.6671,-87.9365,8.5,7.19,156.5,-9999.0,'1111122,1111122,1111122' 
DISL,ioos:station:DISL:MHPA:1,2008-05-02T21:00:00Z,30.6671,-87.9365,8.5,6.98,145.0,-9999.0,'1111122,1111122,1111122' 
DISL,ioos:station:DISL:MHPA:1,2008-05-02T21:30:00Z,30.6671,-87.9365,8.5,6.86,141.3,-9999.0,'1111122,1111122,1111122' 
DISL,ioos:station:DISL:MHPA:1,2008-05-02T22:00:00Z,30.6671,-87.9365,8.5,6.66,145.2,-9999.0,'1111122,1111122,1111122' 
DISL,ioos:station:DISL:MHPA:1,2008-05-02T22:30:00Z,30.6671,-87.9365,8.5,5.74,135.4,-9999.0,'1111122,1111122,1111122' 
DISL,ioos:station:DISL:MHPA:1,2008-05-02T23:00:00Z,30.6671,-87.9365,8.5,5.91,132.2,-9999.0,'1111122,1111122,1111122' 
DISL,ioos:station:DISL:MHPA:1,2008-05-02T23:30:00Z,30.6671,-87.9365,8.5,6.0,138.6,-9999.0,'1111122,1111122,1111122' 
DISL,ioos:station:DISL:MHPA:1,2008-05-03T00:00:00Z,30.6671,-87.9365,8.5,5.6,147.1,-9999.0,'1111122,1111122,1111122' 
DISL,ioos:station:DISL:MHPA:1,2008-05-03T00:30:00Z,30.6671,-87.9365,8.5,6.01,141.4,-9999.0,'1111122,1111122,1111122' 
DISL,ioos:station:DISL:MHPA:1,2008-05-03T01:00:00Z,30.6671,-87.9365,8.5,5.72,131.3,-9999.0,'1111122,1111122,1111122' 
DISL,ioos:station:DISL:MHPA:1,2008-05-03T01:30:00Z,30.6671,-87.9365,8.5,5.99,137.7,-9999.0,'1111122,1111122,1111122' 
DISL,ioos:station:DISL:MHPA:1,2008-05-03T02:00:00Z,30.6671,-87.9365,8.5,6.88,143.4,-9999.0,'1111122,1111122,1111122' 
DISL,ioos:station:DISL:MHPA:1,2008-05-03T02:30:00Z,30.6671,-87.9365,8.5,7.99,145.3,-9999.0,'1111122,1111122,1111122' 
DISL,ioos:station:DISL:MHPA:1,2008-05-03T03:00:00Z,30.6671,-87.9365,8.5,8.0,145.3,-9999.0,'1111122,1111122,1111122' 
DISL,ioos:station:DISL:MHPA:1,2008-05-03T03:30:00Z,30.6671,-87.9365,8.5,7.63,148.0,-9999.0,'1111122,1111122,1111122' 
DISL,ioos:station:DISL:MHPA:1,2008-05-03T04:00:00Z,30.6671,-87.9365,8.5,8.4,159.0,-9999.0,'1111122,1111122,1111122' 
DISL,ioos:station:DISL:MHPA:1,2008-05-03T04:30:00Z,30.6671,-87.9365,8.5,8.72,159.5,-9999.0,'1111122,1111122,1111122' 
DISL,ioos:station:DISL:MHPA:1,2008-05-03T05:00:00Z,30.6671,-87.9365,8.5,7.95,162.4,-9999.0,'1111122,1111122,1111122' 
DISL,ioos:station:DISL:MHPA:1,2008-05-03T05:30:00Z,30.6671,-87.9365,8.5,6.78,155.8,-9999.0,'1111122,1111122,1111122' 
DISL,ioos:station:DISL:MHPA:1,2008-05-03T06:00:00Z,30.6671,-87.9365,8.5,8.21,153.0,-9999.0,'1111122,1111122,1111122' 
DISL,ioos:station:DISL:MHPA:1,2008-05-03T06:30:00Z,30.6671,-87.9365,8.5,8.14,158.0,-9999.0,'1111122,1111122,1111122' 
DISL,ioos:station:DISL:MHPA:1,2008-05-03T07:00:00Z,30.6671,-87.9365,8.5,8.5,163.1,-9999.0,'1111122,1111122,1111122' 
DISL,ioos:station:DISL:MHPA:1,2008-05-03T07:30:00Z,30.6671,-87.9365,8.5,8.37,168.0,-9999.0,'1111122,1111122,1111122' 
DISL,ioos:station:DISL:MHPA:1,2008-05-03T08:00:00Z,30.6671,-87.9365,8.5,9.24,166.7,-9999.0,'1111122,1111122,1111122' 
DISL,ioos:station:DISL:MHPA:1,2008-05-03T08:30:00Z,30.6671,-87.9365,8.5,8.58,165.4,-9999.0,'1111122,1111122,1111122' 
DISL,ioos:station:DISL:MHPA:1,2008-05-03T09:00:00Z,30.6671,-87.9365,8.5,7.59,173.9,-9999.0,'1111122,1111122,1111122' 
DISL,ioos:station:DISL:MHPA:1,2008-05-03T09:30:00Z,30.6671,-87.9365,8.5,6.54,168.1,-9999.0,'1111122,1111122,1111122' 
DISL,ioos:station:DISL:MHPA:1,2008-05-03T10:00:00Z,30.6671,-87.9365,8.5,6.98,167.4,-9999.0,'1111122,1111122,1111122' 
DISL,ioos:station:DISL:MHPA:1,2008-05-03T10:30:00Z,30.6671,-87.9365,8.5,6.56,165.4,-9999.0,'1111122,1111122,1111122' 
DISL,ioos:station:DISL:MHPA:1,2008-05-03T11:00:00Z,30.6671,-87.9365,8.5,7.02,159.1,-9999.0,'1111122,1111122,1111122' 
DISL,ioos:station:DISL:MHPA:1,2008-05-03T11:30:00Z,30.6671,-87.9365,8.5,6.64,163.3,-9999.0,'1111122,1111122,1111122' 
DISL,ioos:station:DISL:MHPA:1,2008-05-03T12:00:00Z,30.6671,-87.9365,8.5,6.93,162.1,-9999.0,'1111122,1111122,1111122' 
DISL,ioos:station:DISL:MHPA:1,2008-05-03T12:30:00Z,30.6671,-87.9365,8.5,6.03,164.4,-9999.0,'1111122,1111122,1111122' 
DISL,ioos:station:DISL:MHPA:1,2008-05-03T13:00:00Z,30.6671,-87.9365,8.5,6.54,167.5,-9999.0,'1111122,1111122,1111122' 
DISL,ioos:station:DISL:MHPA:1,2008-05-03T13:30:00Z,30.6671,-87.9365,8.5,7.3,159.1,-9999.0,'1111122,1111122,1111122' 
DISL,ioos:station:DISL:MHPA:1,2008-05-03T14:00:00Z,30.6671,-87.9365,8.5,6.19,165.9,-9999.0,'1111122,1111122,1111122' 
DISL,ioos:station:DISL:MHPA:1,2008-05-03T14:30:00Z,30.6671,-87.9365,8.5,4.9,155.1,-9999.0,'1111122,1111122,1111122' 
DISL,ioos:station:DISL:MHPA:1,2008-05-03T15:00:00Z,30.6671,-87.9365,8.5,3.77,311.1,-9999.0,'1111122,1111122,1111122' 
DISL,ioos:station:DISL:MHPA:1,2008-05-03T15:30:00Z,30.6671,-87.9365,8.5,1.92,177.6,-9999.0,'1111122,1111122,1111122' 
DISL,ioos:station:DISL:MHPA:1,2008-05-03T16:00:00Z,30.6671,-87.9365,8.5,3.69,125.9,-9999.0,'1111122,1111122,1111122' 
DISL,ioos:station:DISL:MHPA:1,2008-05-03T16:30:00Z,30.6671,-87.9365,8.5,4.98,115.5,-9999.0,'1111122,1111122,1111122' 
DISL,ioos:station:DISL:MHPA:1,2008-05-03T17:00:00Z,30.6671,-87.9365,8.5,4.89,120.7,-9999.0,'1111122,1111122,1111122' 
DISL,ioos:station:DISL:MHPA:1,2008-05-03T17:30:00Z,30.6671,-87.9365,8.5,4.75,140.0,-9999.0,'1111122,1111122,1111122' 
DISL,ioos:station:DISL:MHPA:1,2008-05-03T18:00:00Z,30.6671,-87.9365,8.5,4.51,153.8,-9999.0,'1111122,1111122,1111122' 
DISL,ioos:station:DISL:MHPA:1,2008-05-03T18:30:00Z,30.6671,-87.9365,8.5,3.71,136.0,-9999.0,'1111122,1111122,1111122' 
DISL,ioos:station:DISL:MHPA:1,2008-05-03T19:00:00Z,30.6671,-87.9365,8.5,2.98,134.2,-9999.0,'1111122,1111122,1111122' 
DISL,ioos:station:DISL:MHPA:1,2008-05-03T19:30:00Z,30.6671,-87.9365,8.5,1.42,193.3,-9999.0,'1111122,1111122,1111122' 
DISL,ioos:station:DISL:MHPA:1,2008-05-03T20:00:00Z,30.6671,-87.9365,8.5,2.42,234.8,-9999.0,'1111122,1111122,1111122' 
DISL,ioos:station:DISL:MHPA:1,2008-05-03T20:30:00Z,30.6671,-87.9365,8.5,1.83,227.1,-9999.0,'1111122,1111122,1111122' 
DISL,ioos:station:DISL:MHPA:1,2008-05-03T21:00:00Z,30.6671,-87.9365,8.5,1.44,219.2,-9999.0,'1111122,1111122,1111122' 
DISL,ioos:station:DISL:MHPA:1,2008-05-03T21:30:00Z,30.6671,-87.9365,8.5,1.8,176.8,-9999.0,'1111122,1111122,1111122' 
DISL,ioos:station:DISL:MHPA:1,2008-05-03T22:00:00Z,30.6671,-87.9365,8.5,2.96,167.6,-9999.0,'1111122,1111122,1111122' 
DISL,ioos:station:DISL:MHPA:1,2008-05-03T22:30:00Z,30.6671,-87.9365,8.5,3.36,166.6,-9999.0,'1111122,1111122,1111122' 
DISL,ioos:station:DISL:MHPA:1,2008-05-03T23:00:00Z,30.6671,-87.9365,8.5,3.54,165.9,-9999.0,'1111122,1111122,1111122' 
DISL,ioos:station:DISL:MHPA:1,2008-05-03T23:30:00Z,30.6671,-87.9365,8.5,2.47,174.0,-9999.0,'1111122,1111122,1111122' 
DISL,ioos:station:DISL:MHPA:1,2008-05-04T00:00:00Z,30.6671,-87.9365,8.5,2.77,174.5,-9999.0,'1111122,1111122,1111122' 
DISL,ioos:station:DISL:MHPA:1,2008-05-04T00:30:00Z,30.6671,-87.9365,8.5,3.82,164.4,-9999.0,'1111122,1111122,1111122' 
DISL,ioos:station:DISL:MHPA:1,2008-05-04T01:00:00Z,30.6671,-87.9365,8.5,2.54,158.6,-9999.0,'1111122,1111122,1111122' 
DISL,ioos:station:DISL:MHPA:1,2008-05-04T01:30:00Z,30.6671,-87.9365,8.5,1.47,109.9,-9999.0,'1111122,1111122,1111122' 
DISL,ioos:station:DISL:MHPA:1,2008-05-04T02:00:00Z,30.6671,-87.9365,8.5,1.84,157.6,-9999.0,'1111122,1111122,1111122' 
DISL,ioos:station:DISL:MHPA:1,2008-05-04T02:30:00Z,30.6671,-87.9365,8.5,3.75,234.4,-9999.0,'1111122,1111122,1111122' 
DISL,ioos:station:DISL:MHPA:1,2008-05-04T03:00:00Z,30.6671,-87.9365,8.5,3.17,249.7,-9999.0,'1111122,1111122,1111122' 
DISL,ioos:station:DISL:MHPA:1,2008-05-04T03:30:00Z,30.6671,-87.9365,8.5,4.0,231.9,-9999.0,'1111122,1111122,1111122' 
DISL,ioos:station:DISL:MHPA:1,2008-05-04T04:00:00Z,30.6671,-87.9365,8.5,3.2,234.5,-9999.0,'1111122,1111122,1111122' 
DISL,ioos:station:DISL:MHPA:1,2008-05-04T04:30:00Z,30.6671,-87.9365,8.5,3.94,246.9,-9999.0,'1111122,1111122,1111122' 
DISL,ioos:station:DISL:MHPA:1,2008-05-04T05:00:00Z,30.6671,-87.9365,8.5,3.27,239.8,-9999.0,'1111122,1111122,1111122' 
DISL,ioos:station:DISL:MHPA:1,2008-05-04T05:30:00Z,30.6671,-87.9365,8.5,3.14,246.8,-9999.0,'1111122,1111122,1111122' 
DISL,ioos:station:DISL:MHPA:1,2008-05-04T06:00:00Z,30.6671,-87.9365,8.5,3.1,242.0,-9999.0,'1111122,1111122,1111122' 
DISL,ioos:station:DISL:MHPA:1,2008-05-04T06:30:00Z,30.6671,-87.9365,8.5,2.57,222.3,-9999.0,'1111122,1111122,1111122' 
DISL,ioos:station:DISL:MHPA:1,2008-05-04T07:00:00Z,30.6671,-87.9365,8.5,3.49,274.7,-9999.0,'1111122,1111122,1111122' 
DISL,ioos:station:DISL:MHPA:1,2008-05-04T07:30:00Z,30.6671,-87.9365,8.5,1.69,283.0,-9999.0,'1111122,1111122,1111122' 
DISL,ioos:station:DISL:MHPA:1,2008-05-04T08:00:00Z,30.6671,-87.9365,8.5,2.4,1.334,-9999.0,'1111122,1111122,1111122' 
DISL,ioos:station:DISL:MHPA:1,2008-05-04T08:30:00Z,30.6671,-87.9365,8.5,2.84,344.0,-9999.0,'1111122,1111122,1111122' 
DISL,ioos:station:DISL:MHPA:1,2008-05-04T09:00:00Z,30.6671,-87.9365,8.5,3.09,3.097,-9999.0,'1111122,1111122,1111122' 
DISL,ioos:station:DISL:MHPA:1,2008-05-04T09:30:00Z,30.6671,-87.9365,8.5,3.03,1.477,-9999.0,'1111122,1111122,1111122' 
DISL,ioos:station:DISL:MHPA:1,2008-05-04T10:00:00Z,30.6671,-87.9365,8.5,2.4,11.3,-9999.0,'1111122,1111122,1111122' 
DISL,ioos:station:DISL:MHPA:1,2008-05-04T10:30:00Z,30.6671,-87.9365,8.5,2.96,9.5,-9999.0,'1111122,1111122,1111122' 
DISL,ioos:station:DISL:MHPA:1,2008-05-04T11:00:00Z,30.6671,-87.9365,8.5,2.52,3.953,-9999.0,'1111122,1111122,1111122' 
DISL,ioos:station:DISL:MHPA:1,2008-05-04T11:30:00Z,30.6671,-87.9365,8.5,2.92,9.02,-9999.0,'1111122,1111122,1111122' 
DISL,ioos:station:DISL:MHPA:1,2008-05-04T12:00:00Z,30.6671,-87.9365,8.5,2.47,359.2,-9999.0,'1111122,1111122,1111122' 
DISL,ioos:station:DISL:MHPA:1,2008-05-04T12:30:00Z,30.6671,-87.9365,8.5,2.61,4.413,-9999.0,'1111122,1111122,1111122' 
DISL,ioos:station:DISL:MHPA:1,2008-05-04T13:00:00Z,30.6671,-87.9365,8.5,3.04,12.29,-9999.0,'1111122,1111122,1111122' 
DISL,ioos:station:DISL:MHPA:1,2008-05-04T13:30:00Z,30.6671,-87.9365,8.5,2.82,6.883,-9999.0,'1111122,1111122,1111122' 
DISL,ioos:station:DISL:MHPA:1,2008-05-04T14:00:00Z,30.6671,-87.9365,8.5,2.23,11.14,-9999.0,'1111122,1111122,1111122' 
DISL,ioos:station:DISL:MHPA:1,2008-05-04T14:30:00Z,30.6671,-87.9365,8.5,1.59,8.06,-9999.0,'1111122,1111122,1111122' 
DISL,ioos:station:DISL:MHPA:1,2008-05-04T15:00:00Z,30.6671,-87.9365,8.5,1.05,308.7,-9999.0,'1111122,1111122,1111122' 
DISL,ioos:station:DISL:MHPA:1,2008-05-04T15:30:00Z,30.6671,-87.9365,8.5,1.88,306.0,-9999.0,'1111122,1111122,1111122' 
DISL,ioos:station:DISL:MHPA:1,2008-05-04T16:00:00Z,30.6671,-87.9365,8.5,2.86,260.0,-9999.0,'1111122,1111122,1111122' 
DISL,ioos:station:DISL:MHPA:1,2008-05-04T16:30:00Z,30.6671,-87.9365,8.5,3.33,256.5,-9999.0,'1111122,1111122,1111122' 
DISL,ioos:station:DISL:MHPA:1,2008-05-04T17:00:00Z,30.6671,-87.9365,8.5,2.63,248.8,-9999.0,'1111122,1111122,1111122' 
DISL,ioos:station:DISL:MHPA:1,2008-05-04T17:30:00Z,30.6671,-87.9365,8.5,2.59,235.9,-9999.0,'1111122,1111122,1111122' 
DISL,ioos:station:DISL:MHPA:1,2008-05-04T18:00:00Z,30.6671,-87.9365,8.5,2.84,216.7,-9999.0,'1111122,1111122,1111122' 
DISL,ioos:station:DISL:MHPA:1,2008-05-04T18:30:00Z,30.6671,-87.9365,8.5,2.85,195.7,-9999.0,'1111122,1111122,1111122' 
DISL,ioos:station:DISL:MHPA:1,2008-05-04T19:00:00Z,30.6671,-87.9365,8.5,2.85,180.2,-9999.0,'1111122,1111122,1111122' 
DISL,ioos:station:DISL:MHPA:1,2008-05-04T19:30:00Z,30.6671,-87.9365,8.5,2.22,190.8,-9999.0,'1111122,1111122,1111122' 
DISL,ioos:station:DISL:MHPA:1,2008-05-04T20:00:00Z,30.6671,-87.9365,8.5,2.01,198.3,-9999.0,'1111122,1111122,1111122' 
DISL,ioos:station:DISL:MHPA:1,2008-05-04T20:30:00Z,30.6671,-87.9365,8.5,2.57,203.2,-9999.0,'1111122,1111122,1111122' 
DISL,ioos:station:DISL:MHPA:1,2008-05-04T21:00:00Z,30.6671,-87.9365,8.5,4.59,202.5,-9999.0,'1111122,1111122,1111122' 
DISL,ioos:station:DISL:MHPA:1,2008-05-04T21:30:00Z,30.6671,-87.9365,8.5,4.67,205.7,-9999.0,'1111122,1111122,1111122' 
DISL,ioos:station:DISL:MHPA:1,2008-05-04T22:00:00Z,30.6671,-87.9365,8.5,4.93,199.2,-9999.0,'1111122,1111122,1111122' 
DISL,ioos:station:DISL:MHPA:1,2008-05-04T22:30:00Z,30.6671,-87.9365,8.5,4.88,189.6,-9999.0,'1111122,1111122,1111122' 
DISL,ioos:station:DISL:MHPA:1,2008-05-04T23:00:00Z,30.6671,-87.9365,8.5,4.72,189.9,-9999.0,'1111122,1111122,1111122' 
DISL,ioos:station:DISL:MHPA:1,2008-05-04T23:30:00Z,30.6671,-87.9365,8.5,5.62,198.1,-9999.0,'1111122,1111122,1111122' 
DISL,ioos:station:DISL:MHPA:1,2008-05-05T00:00:00Z,30.6671,-87.9365,8.5,6.16,185.4,-9999.0,'1111122,1111122,1111122' 
DISL,ioos:station:DISL:MHPA:1,2008-05-05T00:30:00Z,30.6671,-87.9365,8.5,5.14,207.6,-9999.0,'1111122,1111122,1111122' 
DISL,ioos:station:DISL:MHPA:1,2008-05-05T01:00:00Z,30.6671,-87.9365,8.5,4.16,205.5,-9999.0,'1111122,1111122,1111122' 
DISL,ioos:station:DISL:MHPA:1,2008-05-05T01:30:00Z,30.6671,-87.9365,8.5,2.74,233.4,-9999.0,'1111122,1111122,1111122' 
DISL,ioos:station:DISL:MHPA:1,2008-05-05T02:00:00Z,30.6671,-87.9365,8.5,0.99,2.763,-9999.0,'1111122,1111122,1111122' 
DISL,ioos:station:DISL:MHPA:1,2008-05-05T02:30:00Z,30.6671,-87.9365,8.5,1.37,343.1,-9999.0,'1111122,1111122,1111122' 
DISL,ioos:station:DISL:MHPA:1,2008-05-05T03:00:00Z,30.6671,-87.9365,8.5,1.31,353.3,-9999.0,'1111122,1111122,1111122' 
DISL,ioos:station:DISL:MHPA:1,2008-05-05T03:30:00Z,30.6671,-87.9365,8.5,1.3,6.966,-9999.0,'1111122,1111122,1111122' 
DISL,ioos:station:DISL:MHPA:1,2008-05-05T04:00:00Z,30.6671,-87.9365,8.5,1.2,14.86,-9999.0,'1111122,1111122,1111122' 
DISL,ioos:station:DISL:MHPA:1,2008-05-05T04:30:00Z,30.6671,-87.9365,8.5,1.04,15.02,-9999.0,'1111122,1111122,1111122' 